GW6047 Weather Reports


time (UTC)temp
C
wind
direction
speed
KPH
gust
KPH
rain 1hr
cm
rain 24hr
cm
rain mn
cm
humidity
%
barometer
mb
20260509163646 11 202 0.0 0.0 0.30 0.61 0.61 96 1009.8
20260509163141 11 205 1.6 1.6 0.48 0.58 0.58 96 1009.8
20260509162639 11 195 0.0 0.0 0.43 0.56 0.56 96 1009.7
20260509162134 11 202 0.0 0.0 0.30 0.53 0.53 96 1009.9
20260509161631 11 198 1.6 1.6 0.18 0.48 0.48 95 1009.8
20260509161126 11 196 3.2 3.2 0.18 0.48 0.48 95 1010.0
20260509160622 11 199 3.2 3.2 0.13 0.46 0.46 95 1009.7
20260509160118 11 206 1.6 3.2 0.13 0.46 0.46 95 1009.8
20260509155614 11 198 3.2 4.8 0.00 0.43 0.43 95 1009.7
20260509155110 11 209 1.6 3.2 0.18 0.43 0.43 95 1009.8
20260509154606 11 210 0.0 1.6 0.18 0.43 0.43 95 1009.8
20260509154104 11 200 0.0 0.0 0.00 0.41 0.41 95 1009.7
20260509153601 11 184 0.0 0.0 0.00 0.41 0.41 96 1009.8
20260509153057 11 209 3.2 3.2 0.00 0.41 0.41 95 1009.7
20260509152553 11 210 1.6 3.2 0.13 0.41 0.41 95 1009.8
20260509152051 11 200 0.0 0.0 0.13 0.41 0.41 96 1009.9
20260509151547 11 195 0.0 0.0 0.18 0.38 0.38 95 1010.1
20260509151045 11 198 0.0 1.6 0.18 0.38 0.38 95 1010.0
20260509150542 11 202 0.0 1.6 0.18 0.38 0.38 94 1010.1
20260509150041 11 207 3.2 3.2 0.18 0.36 0.36 94 1009.9
20260509145536 11 208 3.2 3.2 0.18 0.36 0.36 94 1010.3
20260509145031 11 220 3.2 3.2 0.13 0.33 0.33 94 1010.1
20260509144528 11 203 0.0 1.6 0.13 0.33 0.33 94 1010.1
20260509144025 11 202 0.0 0.0 0.18 0.30 0.30 94 1010.2
20260509143522 11 205 0.0 0.0 0.30 0.30 0.30 94 1010.1
20260509143020 11 203 0.0 0.0 0.30 0.28 0.28 93 1010.0
20260509142515 11 207 1.6 1.6 0.30 0.25 0.25 94 1010.1
20260509142011 11 203 1.6 1.6 0.13 0.23 0.23 94 1010.2
20260509141508 11 211 1.6 1.6 0.13 0.23 0.23 94 1010.2
20260509141004 11 229 3.2 4.8 0.18 0.20 0.20 93 1010.2
20260509140500 11 202 1.6 1.6 0.13 0.18 0.18 94 1010.2
20260509135959 11 203 0.0 1.6 0.13 0.18 0.18 93 1010.3
20260509135456 11 201 0.0 0.0 0.18 0.15 0.15 93 1010.5
20260509134953 11 203 0.0 0.0 0.18 0.15 0.15 93 1010.2
20260509134451 11 204 1.6 1.6 0.18 0.15 0.15 93 1010.0
20260509133948 11 207 0.0 0.0 0.13 0.13 0.13 93 1009.9
20260509133445 11 204 0.0 0.0 0.13 0.13 0.13 93 1010.0
20260509132943 11 203 0.0 0.0 0.00 0.10 0.10 94 1010.2
20260509132441 11 202 0.0 0.0 0.00 0.10 0.10 93 1010.2
20260509131937 11 200 0.0 0.0 0.18 0.10 0.10 93 1010.1
20260509131435 11 201 0.0 0.0 0.18 0.10 0.10 93 1010.3
20260509130931 11 205 1.6 1.6 0.13 0.08 0.08 93 1010.2
20260509130426 11 205 0.0 0.0 0.13 0.08 0.08 92 1010.2
20260509125924 11 195 1.6 1.6 0.00 0.05 0.05 92 1010.2
20260509125420 11 203 0.0 0.0 0.18 0.05 0.05 93 1010.2
20260509124916 10 207 0.0 0.0 0.18 0.05 0.05 92 1010.2
20260509124414 10 199 0.0 1.6 0.00 0.03 0.03 94 1010.2
20260509123911 10 95 1.6 1.6 0.00 0.03 0.03 94 1010.2
20260509123408 10 196 0.0 1.6 0.00 0.03 0.03 95 1009.9
20260509122904 10 190 0.0 1.6 0.00 0.03 0.03 95 1010.1
20260509122401 10 212 1.6 1.6 0.00 0.03 0.03 96 1010.1
20260509121858 10 148 1.6 1.6 0.00 0.03 0.03 96 1010.2
20260509121355 10 189 0.0 1.6 0.00 0.03 0.03 96 1010.5
20260509120853 10 205 0.0 0.0 0.00 0.03 0.03 96 1010.3
20260509120350 10 200 0.0 0.0 0.00 0.03 0.03 96 1010.6
20260509115848 10 199 0.0 0.0 0.00 0.03 0.03 96 1010.7
20260509115345 10 203 0.0 0.0 0.00 0.03 0.03 96 1010.4
20260509114843 10 201 0.0 0.0 0.00 0.03 0.03 96 1010.5
20260509114341 10 201 0.0 0.0 0.00 0.03 0.03 97 1010.4
20260509113840 10 200 0.0 0.0 0.00 0.03 0.03 97 1010.7
20260509113337 10 201 0.0 0.0 0.18 0.03 0.03 97 1010.3
20260509112834 10 204 0.0 1.6 0.18 0.03 0.03 97 1010.6
20260509112331 10 204 1.6 1.6 0.00 0.00 0.00 97 1010.5
20260509111828 10 197 0.0 0.0 0.00 0.00 0.00 97 1010.5
20260509111325 10 203 0.0 0.0 0.00 0.00 0.00 97 1010.5
20260509110823 10 200 0.0 0.0 0.00 0.00 0.00 97 1010.4
20260509110319 10 216 1.6 1.6 0.00 0.00 0.00 97 1010.1
20260509105817 9 200 0.0 0.0 0.00 0.00 0.00 97 1010.2
20260509105315 9 194 0.0 0.0 0.00 0.00 0.00 97 1010.0
20260509104811 9 202 0.0 0.0 0.00 0.00 0.00 97 1009.9
20260509104308 9 192 1.6 1.6 0.00 0.00 0.00 97 1010.0
20260509103806 9 200 1.6 1.6 0.00 0.00 0.00 97 1010.1
20260509103303 9 207 0.0 0.0 0.00 0.00 0.00 97 1009.8
20260509102801 9 209 1.6 1.6 0.00 0.00 0.00 97 1009.8
20260509102258 9 206 0.0 0.0 0.00 0.00 0.00 97 1009.6
20260509101754 9 200 0.0 0.0 0.00 0.00 0.00 97 1009.7
20260509101250 9 210 1.6 1.6 0.00 0.00 0.00 97 1009.9
20260509100748 9 200 0.0 0.0 0.00 0.00 0.00 97 1009.9
20260509100246 9 210 1.6 1.6 0.00 0.00 0.00 97 1009.9
20260509095741 9 198 0.0 0.0 0.00 0.00 0.00 97 1010.0
20260509095239 9 203 0.0 0.0 0.00 0.00 0.00 97 1009.7
20260509094736 9 206 0.0 1.6 0.00 0.00 0.00 97 1009.8
20260509094233 9 202 0.0 0.0 0.00 0.00 0.00 97 1009.6
20260509093731 9 206 1.6 1.6 0.00 0.00 0.00 97 1009.8
20260509093228 9 199 0.0 0.0 0.00 0.00 0.00 97 1009.7
20260509092726 9 203 0.0 0.0 0.00 0.00 0.00 97 1009.6
20260509092224 9 206 0.0 0.0 0.00 0.00 0.00 96 1009.9
20260509091722 9 201 0.0 0.0 0.00 0.00 0.00 96 1009.8
20260509091217 9 205 1.6 3.2 0.00 0.00 0.00 96 1009.9
20260509090715 9 200 0.0 0.0 0.00 0.00 0.00 96 1010.0
20260509090212 9 208 1.6 1.6 0.00 0.00 0.00 96 1009.9
20260509085710 9 201 0.0 0.0 0.00 0.00 0.00 96 1010.0
20260509085207 9 203 0.0 0.0 0.00 0.00 0.00 96 1009.8
20260509084703 9 197 0.0 0.0 0.00 0.00 0.00 95 1010.1
20260509084200 9 197 0.0 0.0 0.00 0.00 0.00 95 1010.1
20260509083658 9 206 3.2 3.2 0.00 0.00 0.00 95 1010.4
20260509083154 9 202 0.0 0.0 0.00 0.00 0.00 95 1010.1
20260509082651 9 203 0.0 1.6 0.00 0.00 0.00 95 1010.1
20260509082148 9 194 0.0 0.0 0.00 0.00 0.00 95 1010.1
20260509081645 9 215 1.6 1.6 0.00 0.00 0.00 95 1010.1
20260509081142 9 200 0.0 0.0 0.00 0.00 0.00 95 1010.0
20260509080640 9 210 0.0 1.6 0.00 0.00 0.00 95 1010.2
20260509080138 9 196 0.0 0.0 0.00 0.00 0.00 94 1010.0
20260509075636 9 204 0.0 0.0 0.00 0.00 0.00 94 1009.9
20260509075133 9 200 0.0 0.0 0.00 0.00 0.00 94 1010.1
20260509074630 9 227 1.6 3.2 0.00 0.00 0.00 94 1010.0
20260509074126 10 203 0.0 0.0 0.00 0.00 0.00 94 1009.9
20260509073623 10 207 0.0 0.0 0.00 0.00 0.00 94 1009.8
20260509073119 10 198 0.0 0.0 0.00 0.00 0.00 94 1009.9
20260509072616 10 127 3.2 3.2 0.00 0.00 0.00 94 1009.9
20260509072113 10 203 0.0 0.0 0.00 0.00 0.00 94 1010.1
20260509071610 10 185 1.6 1.6 0.00 0.00 0.00 94 1010.3
20260509071107 10 203 0.0 0.0 0.00 0.00 0.00 94 1010.2
20260509070604 10 201 0.0 0.0 0.00 0.00 0.00 94 1010.1
20260509070100 10 204 0.0 0.0 0.00 0.00 0.00 94 1010.1
20260509065556 10 194 0.0 0.0 0.00 0.00 0.00 94 1010.2
20260509065052 10 200 0.0 0.0 0.00 0.00 0.00 94 1010.3
20260509064550 10 203 1.6 1.6 0.00 0.00 0.00 93 1010.4
20260509064048 10 205 0.0 0.0 0.00 0.00 0.00 93 1010.6
20260509063543 10 199 0.0 1.6 0.00 0.00 0.00 93 1010.5
20260509063041 10 204 0.0 0.0 0.00 0.00 0.00 93 1010.8
20260509062538 10 198 0.0 0.0 0.00 0.00 0.00 93 1010.5
20260509062035 10 210 0.0 0.0 0.00 0.00 0.00 93 1010.9
20260509061532 10 216 1.6 1.6 0.00 0.00 0.00 93 1011.1
20260509061029 10 214 3.2 3.2 0.00 0.00 0.00 93 1011.1
20260509060527 10 194 1.6 3.2 0.00 0.00 0.00 93 1011.1
20260509060023 10 202 0.0 0.0 0.00 0.00 0.00 93 1011.2
20260509055518 10 205 0.0 0.0 0.00 0.00 0.00 93 1010.8
20260509055014 10 199 0.0 0.0 0.00 0.00 0.00 93 1011.1
20260509054511 10 206 0.0 1.6 0.00 0.00 0.00 93 1011.2
20260509054009 10 205 0.0 1.6 0.00 0.00 0.00 93 1011.4
20260509053508 10 199 0.0 0.0 0.00 0.00 0.00 93 1011.7
20260509053004 10 202 0.0 0.0 0.00 0.00 0.00 93 1011.6
20260509052502 10 203 0.0 0.0 0.00 0.00 0.00 92 1011.4
20260509051959 10 202 0.0 0.0 0.00 0.00 0.00 92 1011.7
20260509051457 10 205 0.0 0.0 0.00 0.00 0.00 92 1011.7
20260509050954 10 202 0.0 0.0 0.00 0.00 0.00 92 1011.7
20260509050450 10 203 0.0 0.0 0.00 0.00 0.00 92 1011.4
20260509045947 10 195 0.0 0.0 0.00 0.00 0.00 92 1011.4
20260509045444 10 199 0.0 0.0 0.00 0.00 0.00 92 1011.9
20260509044941 10 197 0.0 0.0 0.00 0.00 0.00 91 1011.7
20260509044439 10 202 1.6 1.6 0.00 0.00 0.00 90 1011.8
20260509043936 10 203 0.0 1.6 0.00 0.00 0.00 91 1011.4
20260509043432 10 200 0.0 0.0 0.00 0.00 0.00 91 1011.6
20260509042927 10 199 0.0 0.0 0.00 0.00 0.00 90 1011.8
20260509042425 10 192 0.0 0.0 0.00 0.00 0.00 90 1011.6
20260509041921 10 202 0.0 0.0 0.00 0.00 0.00 90 1011.7
20260509041418 10 197 0.0 0.0 0.00 0.00 0.00 89 1012.0
20260509040916 10 202 0.0 0.0 0.00 0.00 0.00 90 1011.8
20260509040414 10 170 1.6 1.6 0.00 0.00 0.00 90 1011.7
20260509035910 10 210 1.6 1.6 0.00 0.03 0.03 91 1011.9
20260509035407 10 196 0.0 1.6 0.00 0.03 0.03 91 1011.4
20260509034903 10 199 0.0 0.0 0.00 0.03 0.03 91 1011.6
20260509034401 10 200 1.6 1.6 0.00 0.03 0.03 91 1011.6
20260509033858 10 200 3.2 3.2 0.00 0.03 0.03 91 1011.1
20260509033355 10 201 3.2 3.2 0.00 0.03 0.03 90 1011.1
20260509032852 10 206 3.2 3.2 0.00 0.03 0.03 90 1010.9
20260509032349 10 212 1.6 1.6 0.00 0.03 0.03 90 1011.4
20260509031847 11 204 0.0 0.0 0.00 0.03 0.03 90 1011.1
20260509031344 11 201 0.0 0.0 0.00 0.03 0.03 90 1011.2
20260509030841 11 193 1.6 1.6 0.00 0.03 0.03 89 1011.4
20260509030339 11 196 1.6 1.6 0.00 0.03 0.03 89 1011.8
20260509025836 11 169 1.6 1.6 0.00 0.03 0.03 88 1011.9
20260509025331 11 223 3.2 3.2 0.00 0.03 0.03 87 1011.3
20260509024827 11 204 0.0 1.6 0.00 0.03 0.03 87 1011.3
20260509024324 11 199 0.0 0.0 0.00 0.03 0.03 87 1011.7
20260509023821 11 189 0.0 0.0 0.00 0.03 0.03 87 1011.7
20260509023318 11 207 0.0 0.0 0.00 0.03 0.03 87 1011.7
20260509022814 11 207 0.0 0.0 0.00 0.03 0.03 88 1011.4
20260509022312 11 223 1.6 1.6 0.00 0.03 0.03 90 1011.3
20260509021808 11 199 0.0 0.0 0.00 0.03 0.03 90 1011.4
20260509021306 11 210 0.0 1.6 0.00 0.03 0.03 90 1011.4
20260509020803 11 203 0.0 0.0 0.00 0.03 0.03 90 1011.8
20260509020301 11 219 1.6 1.6 0.00 0.03 0.03 90 1012.0
20260509015758 11 208 1.6 1.6 0.00 0.03 0.03 90 1011.8
20260509015257 11 202 0.0 0.0 0.00 0.03 0.03 91 1011.8
20260509014753 11 203 0.0 0.0 0.00 0.03 0.03 91 1011.9
20260509014250 11 208 0.0 0.0 0.00 0.03 0.03 91 1011.8
20260509013746 11 193 4.8 4.8 0.00 0.03 0.03 90 1011.3
20260509013242 11 202 0.0 0.0 0.00 0.03 0.03 90 1011.3
20260509012739 11 199 0.0 0.0 0.00 0.03 0.03 90 1011.2
20260509012235 11 194 0.0 0.0 0.00 0.03 0.03 90 1011.2
20260509011733 11 202 0.0 0.0 0.00 0.03 0.03 90 1011.2
20260509011231 11 201 0.0 0.0 0.00 0.03 0.03 90 1011.2
20260509010728 11 210 1.6 1.6 0.00 0.03 0.03 90 1011.1
20260509010225 11 206 0.0 0.0 0.00 0.03 0.03 90 1011.0
20260509005722 11 199 0.0 0.0 0.00 0.03 0.03 88 1011.1
20260509005220 11 196 0.0 0.0 0.00 0.03 0.03 87 1010.9
20260509004719 11 195 0.0 0.0 0.00 0.03 0.03 87 1011.1
20260509004217 11 203 0.0 0.0 0.00 0.03 0.03 88 1011.1
20260509003715 11 208 0.0 1.6 0.00 0.03 0.03 87 1010.9
20260509003213 11 205 0.0 1.6 0.00 0.03 0.03 87 1011.1
20260509002709 12 224 1.6 1.6 0.00 0.03 0.03 87 1011.1
20260509002207 12 201 0.0 0.0 0.00 0.03 0.03 84 1011.1
20260509001705 12 201 0.0 0.0 0.00 0.03 0.03 84 1011.1
20260509001200 12 203 0.0 0.0 0.00 0.03 0.03 83 1011.1
20260509000659 12 208 0.0 1.6 0.00 0.03 0.03 85 1011.2
20260509000155 12 204 1.6 1.6 0.00 0.03 0.03 83 1010.8
20260508235652 12 200 0.0 0.0 0.00 0.03 0.03 83 1010.9
20260508235149 12 203 0.0 0.0 0.00 0.03 0.03 83 1010.9
20260508234646 12 205 0.0 0.0 0.00 0.03 0.03 81 1010.8
20260508234142 12 203 0.0 0.0 0.00 0.03 0.03 80 1010.8
20260508233642 12 202 0.0 0.0 0.00 0.03 0.03 79 1011.0
20260508233139 12 203 0.0 0.0 0.00 0.03 0.03 78 1010.7
20260508232636 13 203 0.0 0.0 0.00 0.03 0.03 78 1010.7
20260508232133 13 203 0.0 0.0 0.00 0.03 0.03 78 1010.7
20260508231631 13 203 0.0 0.0 0.00 0.03 0.03 79 1010.6
20260508231127 13 207 0.0 0.0 0.00 0.03 0.03 78 1010.6
20260508230624 13 205 0.0 1.6 0.00 0.03 0.03 75 1010.3
20260508230121 13 207 1.6 1.6 0.00 0.03 0.03 71 1010.5
20260508225619 14 193 0.0 0.0 0.00 0.03 0.03 71 1010.3
20260508225115 14 200 3.2 3.2 0.00 0.03 0.03 70 1010.4
20260508224613 14 199 0.0 0.0 0.00 0.03 0.03 72 1010.3
20260508224110 13 190 0.0 1.6 0.00 0.03 0.03 74 1010.5
20260508223608 13 162 3.2 4.8 0.00 0.03 0.03 76 1010.7
20260508223105 13 224 3.2 3.2 0.00 0.03 0.03 75 1010.5
20260508222602 13 202 0.0 0.0 0.00 0.03 0.03 80 1010.6
20260508222059 12 208 0.0 1.6 0.00 0.03 0.03 78 1010.6
20260508221555 12 204 0.0 0.0 0.00 0.03 0.03 80 1010.8
20260508221051 12 206 1.6 1.6 0.00 0.03 0.03 80 1010.8
20260508220548 12 204 0.0 1.6 0.00 0.03 0.03 83 1010.8
20260508220044 12 203 0.0 0.0 0.00 0.03 0.03 82 1010.8
20260508215541 12 203 0.0 0.0 0.00 0.03 0.03 81 1010.7
20260508215038 13 203 0.0 0.0 0.00 0.03 0.03 79 1010.5
20260508214535 13 195 0.0 0.0 0.00 0.03 0.03 75 1010.4
20260508214031 13 201 0.0 0.0 0.00 0.03 0.03 75 1010.5
20260508213529 13 199 1.6 1.6 0.00 0.03 0.03 75 1010.2
20260508213024 13 200 0.0 0.0 0.00 0.03 0.03 77 1010.4
20260508212521 13 158 1.6 3.2 0.13 0.03 0.03 76 1010.6
20260508212017 12 207 1.6 1.6 0.13 0.03 0.03 78 1010.7
20260508211513 12 196 0.0 0.0 0.00 0.00 0.00 78 1010.8
20260508211010 12 221 4.8 4.8 0.00 0.00 0.00 77 1010.7
20260508210506 12 213 6.4 8.0 0.00 0.00 0.00 75 1010.8
20260508210004 12 160 6.4 8.0 0.00 0.00 0.00 74 1010.9
20260508205500 13 192 6.4 9.7 0.00 0.00 0.00 72 1010.8
20260508204956 14 211 9.7 14.5 0.00 0.00 0.00 66 1011.1
20260508204454 15 214 8.0 9.7 0.00 0.00 0.00 53 1010.6
20260508203949 16 200 12.9 14.5 0.00 0.00 0.00 50 1010.1
20260508203445 16 215 6.4 8.0 0.00 0.00 0.00 49 1010.1
20260508202941 16 223 4.8 4.8 0.00 0.00 0.00 48 1009.9
20260508202439 16 228 6.4 8.0 0.00 0.00 0.00 46 1009.9
20260508201936 16 210 9.7 11.3 0.00 0.00 0.00 45 1010.1
20260508201432 17 237 8.0 9.7 0.00 0.00 0.00 46 1010.0
20260508200929 16 187 11.3 12.9 0.00 0.00 0.00 45 1010.2
20260508200426 16 223 6.4 11.3 0.00 0.00 0.00 47 1010.2
20260508195921 16 222 11.3 14.5 0.00 0.00 0.00 46 1010.5
20260508195419 16 226 11.3 14.5 0.00 0.00 0.00 45 1010.5
20260508194914 16 201 6.4 8.0 0.00 0.00 0.00 45 1010.4
20260508194412 16 202 6.4 9.7 0.00 0.00 0.00 44 1010.4
20260508193909 17 238 4.8 8.0 0.00 0.00 0.00 43 1010.0
20260508193406 17 198 6.4 9.7 0.00 0.00 0.00 43 1009.9
20260508192902 17 202 1.6 3.2 0.00 0.00 0.00 44 1009.9
20260508192359 17 197 3.2 4.8 0.00 0.00 0.00 40 1010.1
20260508191856 17 226 4.8 4.8 0.00 0.00 0.00 46 1010.0
20260508191353 17 14 4.8 4.8 0.00 0.00 0.00 41 1009.9
20260508190850 17 183 1.6 3.2 0.00 0.00 0.00 43 1010.0
20260508190347 17 205 6.4 9.7 0.00 0.00 0.00 43 1010.1
20260508185843 17 183 6.4 8.0 0.00 0.00 0.00 43 1010.2
20260508185341 17 193 4.8 4.8 0.00 0.00 0.00 42 1010.1
20260508184838 17 113 6.4 8.0 0.00 0.00 0.00 42 1010.0
20260508184335 18 207 0.0 1.6 0.00 0.00 0.00 44 1010.0
20260508183832 18 205 4.8 8.0 0.00 0.00 0.00 44 1010.0
20260508183328 18 204 4.8 8.0 0.00 0.00 0.00 41 1010.2
20260508182824 18 208 9.7 12.9 0.00 0.00 0.00 45 1010.5
20260508182321 17 233 11.3 16.1 0.00 0.00 0.00 45 1010.6
20260508181817 17 283 3.2 4.8 0.00 0.00 0.00 42 1010.8
20260508181314 17 186 11.3 16.1 0.00 0.00 0.00 45 1010.8
20260508180811 16 229 6.4 9.7 0.00 0.00 0.00 49 1010.9
20260508180308 16 238 16.1 17.7 0.00 0.00 0.00 46 1011.0
20260508175804 16 201 4.8 8.0 0.00 0.00 0.00 51 1011.2
20260508175300 16 162 8.0 9.7 0.00 0.00 0.00 48 1011.4
20260508174759 16 240 11.3 12.9 0.00 0.00 0.00 46 1011.3
20260508174256 16 225 4.8 4.8 0.00 0.00 0.00 43 1011.1
20260508173752 16 217 6.4 8.0 0.00 0.00 0.00 44 1011.1
20260508173248 16 315 6.4 8.0 0.00 0.00 0.00 44 1011.1
20260508172745 16 208 6.4 9.7 0.00 0.00 0.00 45 1011.0
20260508172242 16 236 8.0 11.3 0.00 0.00 0.00 46 1011.0
20260508171738 16 208 8.0 11.3 0.00 0.00 0.00 44 1011.0
20260508171234 15 220 9.7 12.9 0.00 0.00 0.00 47 1011.1
20260508170731 16 210 3.2 4.8 0.00 0.00 0.00 45 1011.1
20260508170229 16 256 8.0 11.3 0.00 0.00 0.00 45 1011.1
20260508165726 16 217 8.0 9.7 0.00 0.00 0.00 44 1011.0
20260508165223 16 225 12.9 12.9 0.00 0.00 0.00 43 1011.4
20260508164720 16 224 4.8 4.8 0.00 0.00 0.00 43 1011.2
20260508164216 16 192 11.3 12.9 0.00 0.00 0.00 44 1011.3